MDT,Max TemperatureF,Mean TemperatureF,Min TemperatureF,Max Dew PointF,MeanDew PointF,Min DewpointF,Max Humidity, Mean Humidity, Min Humidity, Max Sea Level PressureIn, Mean Sea Level PressureIn, Min Sea Level PressureIn, Max VisibilityMiles, Mean VisibilityMiles, Min VisibilityMiles, Max Wind SpeedMPH, Mean Wind SpeedMPH, Max Gust SpeedMPH,PrecipitationIn, CloudCover, Events, WindDirDegrees
2013-10-1,71,50,28,34,27,23,86,51,17,30.31,30.22,30.11,10,10,10,13,1,17,0.00,0,,261
2013-10-2,66,47,28,30,26,19,86,51,18,30.29,30.18,30.07,10,10,10,12,2,,0.00,0,,257
2013-10-3,66,46,26,30,26,21,86,51,21,30.11,29.98,29.84,10,10,10,21,4,32,0.00,1,,226
2013-10-4,41,34,26,27,20,14,75,57,36,30.33,30.15,29.92,10,10,3,20,13,31,0.00,4,,231
2013-10-5,48,34,21,21,18,10,80,54,30,30.47,30.38,30.32,10,10,10,18,6,25,0.00,1,,260
2013-10-6,62,40,17,27,20,9,86,52,20,30.55,30.46,30.37,10,10,10,13,3,20,0.00,0,,268
2013-10-7,68,44,21,27,23,16,86,50,18,30.49,30.36,30.21,10,10,10,10,1,16,0.00,0,,357
2013-10-8,66,46,26,28,25,19,80,48,21,30.24,30.12,29.98,10,10,9,15,3,26,0.00,0,,297
2013-10-9,64,44,24,30,21,14,80,45,15,30.09,30.03,29.97,10,10,7,20,3,26,0.00,1,,175
2013-10-10,51,43,35,32,28,21,87,60,39,30.05,29.91,29.80,10,10,4,22,6,34,0.06,7,,170
2013-10-11,48,40,33,32,29,25,75,64,49,30.21,30.07,29.93,10,10,10,20,10,26,0.00,6,,243
2013-10-12,51,38,26,28,25,21,86,62,30,30.29,30.23,30.16,10,10,10,10,2,,0.00,2,,138
2013-10-13,62,45,28,36,26,19,81,54,22,30.27,30.17,30.05,10,10,10,23,8,31,0.00,2,,77
2013-10-14,46,40,33,30,28,25,81,67,43,30.18,30.10,30.03,10,10,5,18,7,28,0.01,5,,242
2013-10-15,37,32,30,28,27,27,86,79,65,30.23,30.22,30.21,10,10,10,6,3,,0.00,8,,19
2013-10-16,42,34,26,28,23,18,93,65,36,30.25,30.20,30.15,10,9,1,17,6,29,0.00,5,,275
2013-10-17,50,34,17,23,17,12,86,58,25,30.27,30.18,30.07,10,10,10,15,3,22,0.00,1,,319
2013-10-18,44,34,24,21,15,9,80,51,23,30.31,30.19,30.09,10,10,6,17,4,23,0.00,1,,306
2013-10-19,53,34,15,18,14,9,86,51,24,30.34,30.26,30.18,10,10,10,16,3,23,0.00,0,,285
2013-10-20,53,35,17,21,17,10,80,50,24,30.21,30.13,30.04,10,10,10,17,3,28,0.00,1,,273
2013-10-21,53,37,21,27,18,12,86,51,19,30.36,30.26,30.15,10,10,10,13,3,16,0.00,0,,269
2013-10-22,60,40,19,21,18,12,80,49,19,30.46,30.37,30.28,10,10,10,10,2,24,0.00,0,,284
2013-10-23,62,40,17,25,18,12,93,50,17,30.43,30.34,30.24,10,10,10,8,1,,0.00,0,,13
2013-10-24,60,40,19,19,17,12,80,47,19,30.42,30.34,30.26,10,10,5,8,1,,0.00,0,,34
2013-10-25,48,36,23,36,25,12,86,65,42,30.42,30.37,30.30,10,10,10,16,3,22,0.00,2,,243
2013-10-26,57,42,26,32,25,19,86,61,23,30.51,30.42,30.36,10,10,10,8,2,,0.00,3,,287
2013-10-27,57,38,19,27,21,12,86,56,26,30.40,30.20,30.03,10,10,10,13,2,24,0.00,0,,285
2013-10-28,57,42,28,28,20,16,80,43,20,30.05,29.98,29.91,10,10,10,21,8,33,0.00,1,,129
2013-10-29,50,42,33,30,22,14,81,50,25,30.00,29.97,29.88,10,10,1,34,9,43,0.01,3,,197
2013-10-30,37,26,15,25,20,10,93,73,48,30.06,30.00,29.95,10,10,10,14,3,18,0.00,3,,255
2013-10-31,35,30,26,21,19,18,80,64,48,30.16,30.11,30.01,10,10,8,18,7,25,0.00,5,,272